Theta_e
348 348 348 346 347 347 348 349 349 349 347 344 344 344 340 339 338 338 339 334 335 337 338 339 340 341 341 341 342 343 346 346 346 345 342 341 341 341 341 340 338 339 340
349 347 347 346 348 349 350 350 351 348 344 341 344 342 341 341 340 340 341 340 337 337 338 339 340 342 343 344 344 346 348 348 346 344 342 342 340 338 337 336 336 337 339
349 348 348 347 348 350 352 350 349 347 343 341 344 344 343 342 341 341 342 342 343 341 340 342 343 344 345 345 345 346 349 347 344 343 342 342 342 342 341 341 341 342 342
350 351 346 347 350 351 350 350 346 344 344 341 342 342 343 344 346 346 344 344 345 345 346 345 344 344 344 345 345 345 347 344 344 343 343 344 346 346 345 342 342 340 337
351 349 348 349 353 351 351 348 346 345 344 341 341 343 344 344 345 343 346 348 347 347 348 349 347 347 345 343 345 348 344 344 344 343 344 346 347 347 345 343 342 338 337
351 351 348 349 352 351 352 350 349 347 345 343 340 342 344 345 346 345 346 347 348 349 349 352 353 353 351 344 348 345 346 346 344 345 348 349 348 346 345 344 344 342 339
347 352 348 349 352 351 356 354 351 352 348 350 344 343 345 346 346 347 348 348 349 349 350 351 353 356 355 347 349 347 345 344 348 349 349 346 344 343 343 343 343 344 341
348 350 351 348 352 351 356 356 356 349 350 351 347 344 344 345 344 345 348 349 351 350 349 350 352 358 355 354 349 348 347 347 347 348 346 344 344 344 342 343 343 343 342
350 352 352 350 352 351 352 355 355 354 349 352 355 351 346 345 346 348 350 349 351 349 349 349 349 353 354 352 351 351 347 346 348 346 348 348 347 346 345 347 347 344 342
352 351 352 350 351 350 354 354 352 356 355 350 350 350 353 352 348 348 348 349 348 347 348 348 347 350 351 350 350 352 347 346 349 349 348 347 346 346 347 350 350 344 340
351 351 353 351 350 348 355 356 354 356 354 351 351 350 352 350 352 348 347 347 348 348 348 347 349 350 351 350 348 352 349 350 350 349 347 346 344 346 348 349 351 344 342
349 350 352 353 351 348 353 354 354 356 358 356 353 353 350 350 349 348 349 349 349 345 348 350 352 351 349 348 352 352 349 348 347 346 345 345 346 347 346 350 344 341 344
347 350 352 352 351 351 352 355 357 353 351 356 358 352 352 352 351 350 348 349 349 347 350 349 350 350 349 349 353 353 353 346 345 346 347 348 346 347 348 345 342 341 343
348 350 353 352 353 353 350 354 353 351 352 353 356 357 353 352 351 351 350 349 350 348 349 351 348 349 350 352 351 353 352 347 346 347 348 345 345 345 344 344 344 344 344
350 352 352 352 353 354 352 352 350 353 353 354 352 355 353 352 350 351 351 351 351 351 347 352 345 353 351 350 350 354 344 344 343 344 346 346 345 345 346 346 347 347 347
351 352 352 352 352 353 354 353 351 354 354 351 350 351 354 350 351 349 348 347 347 346 345 339 344 350 353 348 351 353 345 339 334 338 340 341 342 342 343 345 346 347 348
351 351 351 351 352 353 354 354 353 351 354 353 353 352 354 353 349 347 347 347 347 347 345 344 349 351 352 353 352 352 349 335 328 331 334 336 338 339 340 342 344 345 345
349 351 351 350 351 352 353 354 353 352 352 353 353 353 352 351 353 352 349 349 349 350 348 346 350 348 351 351 353 351 346 337 327 325 326 326 328 331 334 334 332 331 332
353 353 352 353 352 352 352 353 353 353 352 352 351 352 352 351 352 351 351 350 349 350 352 352 349 350 350 350 353 349 344 343 334 330 328 324 324 325 326 326 325 325 325
353 354 354 354 355 353 354 354 354 354 352 352 352 352 352 352 352 353 352 352 350 351 350 350 350 349 351 351 351 350 342 341 340 335 333 328 325 318 314 317 319 321 318
354 355 354 354 353 353 352 353 354 354 353 352 352 353 352 352 352 351 351 350 351 351 351 349 350 350 352 348 349 350 347 337 334 335 337 333 327 319 312 308 305 305 308
354 355 354 353 353 352 351 350 350 352 353 352 352 352 353 351 350 348 347 348 348 350 346 346 346 349 351 349 349 349 348 349 341 328 333 332 325 320 312 307 303 303 302
353 353 353 353 352 353 352 349 348 350 352 353 352 351 353 350 350 347 346 346 346 346 346 349 345 348 347 346 348 343 342 338 332 323 330 324 327 321 316 307 301 301 301
352 352 352 353 353 353 353 350 348 348 351 353 353 353 352 350 347 346 343 340 336 338 340 342 344 339 338 336 341 339 340 332 325 319 324 331 315 325 321 314 310 303 301
352 352 351 351 350 350 346 343 344 345 349 351 350 349 347 346 344 337 338 332 329 328 330 332 330 326 325 325 329 333 336 335 332 321 313 321 314 315 323 320 312 307 307
348 343 341 340 340 343 340 340 341 344 346 344 338 336 338 337 337 334 334 331 324 321 321 323 322 320 320 318 318 321 321 322 321 318 310 318 312 313 318 320 314 309 308
Wind_Speed
7 6 6 6 5 5 5 5 5 5 5 6 7 7 8 9 9 9 7 6 6 6 5 4 6 7 9 11 12 13 14 15 17 17 16 14 13 14 15 15 14 13 15
5 6 5 6 6 4 4 3 4 4 6 10 9 9 9 9 8 8 8 5 5 4 5 6 8 10 12 13 13 13 14 13 15 14 14 14 14 14 15 16 15 16 17
5 5 5 5 5 3 2 2 2 4 8 10 10 10 10 9 8 7 6 5 1 5 6 7 8 10 11 12 13 13 13 10 11 12 13 13 13 15 16 16 15 16 18
5 5 7 6 4 2 1 1 5 6 6 9 8 8 8 8 6 5 5 3 1 2 7 10 10 11 12 12 12 13 10 11 10 11 12 13 14 14 15 16 16 16 15
5 5 7 5 3 3 3 3 6 6 7 8 9 7 7 6 5 4 3 1 1 3 5 10 13 13 11 10 11 8 10 10 10 11 13 15 15 14 14 15 16 16 16
4 5 5 4 3 3 5 4 6 6 5 5 6 7 5 4 3 2 1 1 2 3 6 9 10 10 12 6 8 8 11 10 10 11 13 14 15 13 13 13 14 16 16
3 6 4 3 2 3 4 4 5 4 5 4 6 5 4 4 4 3 3 3 4 5 5 6 9 10 6 5 6 9 10 9 10 13 15 13 12 13 13 13 13 15 16
4 4 3 3 2 3 3 3 2 4 3 4 3 2 4 7 6 4 3 4 4 4 3 4 8 8 6 4 5 9 11 11 13 14 14 14 13 13 13 14 12 14 15
6 4 3 3 3 2 3 2 1 3 3 3 2 5 2 4 2 5 4 3 2 4 5 5 4 5 5 5 7 8 11 12 12 12 13 14 14 13 13 14 13 12 15
6 5 3 3 4 3 2 1 2 3 4 2 2 1 2 4 4 2 5 2 3 4 6 6 4 2 4 8 9 9 13 12 10 12 14 15 17 17 14 13 12 10 13
8 7 5 4 5 5 3 2 2 3 3 5 4 2 2 2 2 6 5 1 3 4 4 3 3 4 6 9 12 11 9 9 11 13 16 19 21 20 15 9 7 7 10
12 10 8 6 6 6 5 4 1 1 1 2 2 3 5 5 3 5 5 3 5 2 2 1 3 5 7 10 9 11 12 11 13 16 18 21 21 20 10 8 9 8 8
13 12 11 9 8 7 7 6 4 2 2 2 2 2 1 1 2 4 5 3 5 1 2 2 2 4 6 8 8 8 14 13 14 16 17 18 20 15 11 11 9 9 10
11 9 11 11 10 8 8 8 8 8 6 4 4 3 3 2 2 2 4 6 4 5 5 4 3 5 5 6 7 9 12 13 13 13 13 15 17 16 14 13 12 11 11
11 11 12 11 11 11 9 10 10 8 7 7 7 6 7 5 5 6 5 5 8 8 7 6 6 2 5 4 6 7 9 11 13 13 12 11 12 13 12 12 12 12 12
12 9 11 12 12 13 11 11 11 10 10 10 10 8 9 9 8 9 9 8 9 10 8 11 7 5 7 9 5 3 6 9 12 12 12 13 14 15 15 15 15 14 15
12 12 12 12 13 14 13 12 12 10 11 11 10 10 10 9 11 10 9 9 9 9 11 11 3 2 4 5 5 2 7 10 13 12 12 14 15 16 16 16 15 15 16
12 12 13 13 13 15 15 15 14 13 12 13 13 11 12 13 12 12 13 12 12 9 11 9 8 6 2 2 1 1 4 10 11 10 12 14 15 16 17 17 18 18 18
12 12 13 15 15 14 16 17 16 15 14 14 14 13 13 13 14 14 10 12 11 10 6 9 10 7 4 2 4 5 6 7 7 6 9 13 13 14 16 17 18 18 18
13 12 12 12 12 12 12 13 14 15 14 14 15 15 14 13 14 13 12 13 13 11 10 11 11 7 5 6 6 8 7 5 8 3 2 7 13 12 15 15 16 16 15
15 14 13 12 12 12 13 14 15 14 15 15 14 15 14 14 15 15 12 13 14 13 11 10 12 4 9 5 3 5 8 6 3 1 1 2 4 8 13 17 18 16 13
17 16 15 15 14 14 14 16 15 13 14 15 16 14 14 17 16 16 14 15 11 11 13 12 10 8 3 4 3 4 8 8 7 1 2 1 3 5 9 12 15 14 15
18 17 17 16 16 15 18 16 15 13 14 15 16 15 14 12 13 8 10 11 14 13 13 9 9 4 1 1 1 2 1 1 2 2 4 2 1 3 4 10 16 15 14
20 17 16 16 16 14 19 20 19 17 12 13 13 12 13 12 11 11 8 9 7 3 2 3 5 5 4 3 2 2 3 3 3 4 4 3 2 2 1 2 11 16 16
12 11 10 10 11 11 15 14 14 12 13 11 9 10 11 12 14 14 11 10 9 7 6 5 9 9 7 5 5 3 3 7 6 1 6 3 2 2 4 1 5 15 15
19 14 8 5 7 7 12 13 15 12 13 12 8 9 14 11 14 15 12 14 15 15 12 9 10 9 9 7 3 4 2 4 3 6 5 1 2 3 5 3 1 6 8
Wind_Direction
123 123 123 124 117 113 103 92 73 66 81 98 115 111 112 107 110 111 112 85 79 77 64 33 8 353 351 350 355 352 351 345 344 348 351 356 354 349 343 339 336 333 334
127 126 123 123 117 106 99 84 79 76 95 98 107 113 112 111 109 108 110 80 63 50 27 5 350 346 345 345 349 358 343 331 339 352 356 359 357 357 352 347 339 332 333
128 130 128 129 114 106 115 118 123 114 114 111 111 117 115 110 107 108 108 108 55 20 10 351 339 334 331 335 345 348 353 347 353 356 1 4 3 5 1 355 347 340 338
136 135 138 122 123 109 113 151 159 132 125 129 129 129 123 121 113 112 110 114 68 337 326 322 319 318 324 331 339 351 11 354 356 354 354 352 352 355 355 357 355 351 348
147 142 134 118 104 95 84 135 147 146 140 141 149 144 134 128 140 129 117 81 298 313 323 316 321 329 322 329 349 11 13 4 1 352 347 344 344 349 354 357 2 1 355
162 156 138 123 101 108 92 119 136 145 155 160 152 143 139 144 152 141 172 226 270 305 315 319 327 333 330 344 7 13 8 11 3 351 345 341 338 340 344 348 357 3 358
175 156 147 152 129 110 80 127 147 160 157 167 187 163 163 185 197 199 226 252 287 307 327 339 354 352 355 6 23 15 16 14 357 347 343 342 337 338 343 344 352 359 0
187 173 178 187 184 142 102 118 181 164 170 180 255 210 182 178 208 215 239 270 286 310 349 357 15 20 34 46 357 1 0 354 347 350 358 356 350 336 337 340 347 353 2
205 192 208 212 221 204 148 97 162 258 149 166 207 306 191 234 164 191 225 254 294 319 338 340 356 29 24 359 355 339 340 344 344 360 5 7 5 355 342 340 345 357 3
185 193 217 217 219 220 224 203 329 325 292 182 166 188 322 345 303 213 179 229 287 308 356 358 11 12 9 351 345 334 332 338 345 351 349 350 347 343 338 337 349 10 12
193 195 193 202 215 217 219 231 313 325 307 294 278 252 254 247 265 300 311 133 286 308 348 5 43 23 5 0 355 349 354 359 350 345 342 344 345 348 350 360 23 36 36
201 203 203 204 208 217 223 225 256 19 4 24 334 290 282 296 302 289 291 293 328 291 341 52 29 9 10 4 17 14 6 1 352 349 347 350 349 350 12 52 68 56 49
206 203 209 211 215 220 217 216 219 226 254 296 324 334 22 337 311 306 296 341 314 152 271 264 353 354 2 6 13 29 349 356 354 353 358 359 6 24 65 76 60 50 39
212 207 214 213 214 217 215 219 226 232 225 246 257 280 277 265 306 303 320 322 286 246 203 254 289 318 359 5 13 23 3 8 10 9 13 24 40 55 63 60 48 37 26
224 217 216 222 226 223 221 220 226 230 236 242 242 247 258 257 262 270 280 293 308 307 317 169 313 109 321 333 4 31 32 18 26 31 31 29 41 46 43 38 32 27 21
237 244 231 224 220 225 224 222 224 226 232 233 239 238 252 259 256 264 274 277 281 290 298 318 300 331 319 321 14 69 63 39 43 41 45 50 49 50 47 44 41 34 29
233 227 226 231 229 227 223 225 234 242 233 237 244 242 246 255 260 262 263 268 274 273 281 298 303 244 298 328 340 347 134 77 57 47 51 52 55 56 56 54 49 40 30
223 226 232 232 232 230 230 228 234 247 244 242 241 244 246 247 244 260 264 265 279 289 278 280 313 292 247 289 316 113 108 103 87 54 57 59 58 58 55 52 46 42 37
234 230 226 230 235 236 237 235 234 239 244 242 245 245 249 251 250 260 265 271 254 250 265 285 283 260 258 222 182 154 157 143 123 75 54 54 52 54 57 53 48 39 33
234 235 237 243 240 236 231 223 230 235 239 241 246 245 248 252 253 252 255 258 259 259 256 259 268 252 230 221 210 178 162 167 151 141 100 60 29 33 49 50 42 35 32
229 228 232 231 232 238 242 236 236 236 242 241 238 245 248 247 243 245 248 259 251 248 244 261 268 218 239 230 222 182 179 154 150 106 204 118 45 38 36 34 39 32 25
227 230 233 234 233 238 240 239 239 243 243 241 245 239 234 238 245 246 248 244 236 238 239 231 266 306 306 247 233 227 194 198 198 94 211 49 44 49 51 44 37 26 25
230 231 236 239 239 239 245 243 246 244 254 250 243 238 231 234 215 227 229 243 251 247 225 221 242 232 212 206 46 239 2 26 82 25 234 170 273 84 63 38 35 31 23
231 229 235 239 238 243 246 249 250 243 245 250 241 224 219 220 207 193 167 160 157 169 146 193 158 148 154 143 145 158 150 128 103 21 12 273 357 209 198 312 6 16 18
215 221 221 234 234 235 256 248 242 238 237 231 223 217 214 207 210 191 170 159 137 118 135 155 134 120 120 136 146 195 203 257 234 126 7 308 8 286 226 232 336 359 359
219 215 219 220 239 244 260 251 233 225 216 212 209 209 198 191 195 179 178 160 142 135 128 113 90 75 74 73 117 104 20 284 270 185 352 279 324 334 216 180 317 358 347